Hourly Weather Shkoder

Today, 7 July, Tuesday

Time Temperature Precipitation Wind Pressure Humidity
00:00 +21°C° 0 mm 2 mps 733 mmHg 78%
01:00 +21°C° 0 mm 2 mps 733 mmHg 80%
02:00 +21°C° 0 mm 2 mps 733 mmHg 80%
03:00 +21°C° 0 mm 2 mps 733 mmHg 80%
04:00 +21°C° 0 mm 2 mps 733 mmHg 80%
05:00 +22°C° 0 mm 3 mps 733 mmHg 75%
06:00 +25°C° 0 mm 3 mps 734 mmHg 71%
07:00 +26°C° 0 mm 3 mps 735 mmHg 65%
08:00 +27°C° 0 mm 4 mps 735 mmHg 62%
09:00 +28°C° 0 mm 4 mps 736 mmHg 58%
10:00 +29°C° 0 mm 5 mps 736 mmHg 55%
11:00 +29°C° 0 mm 5 mps 736 mmHg 54%
12:00 +29°C° 0 mm 5 mps 736 mmHg 53%
13:00 +29°C° 0 mm 5 mps 737 mmHg 52%
14:00 +28°C° 0 mm 5 mps 737 mmHg 52%
15:00 +28°C° 0 mm 5 mps 737 mmHg 53%
16:00 +27°C° 0 mm 5 mps 737 mmHg 54%
17:00 +26°C° 0 mm 4 mps 737 mmHg 58%
18:00 +23°C° 0 mm 4 mps 738 mmHg 62%
19:00 +21°C° 0 mm 4 mps 738 mmHg 67%
20:00 +20°C° 0 mm 4 mps 738 mmHg 68%
21:00 +19°C° 0 mm 4 mps 738 mmHg 69%
22:00 +18°C° 0 mm 4 mps 739 mmHg 70%
23:00 +18°C° 0 mm 4 mps 739 mmHg 71%

Tomorrow, 8 July, Wednesday

Time Temperature Precipitation Wind Pressure Humidity
00:00 +17°C° 0 mm 4 mps 739 mmHg 72%
01:00 +15°C° 0 mm 4 mps 739 mmHg 72%
02:00 +15°C° 0 mm 4 mps 739 mmHg 72%
03:00 +15°C° 0 mm 4 mps 739 mmHg 72%
04:00 +14°C° 0 mm 4 mps 739 mmHg 72%
05:00 +17°C° 0 mm 4 mps 739 mmHg 67%
06:00 +18°C° 0 mm 4 mps 739 mmHg 63%
07:00 +20°C° 0 mm 3 mps 740 mmHg 58%
08:00 +21°C° 0 mm 3 mps 740 mmHg 53%
09:00 +24°C° 0 mm 3 mps 740 mmHg 48%
10:00 +26°C° 0 mm 3 mps 740 mmHg 42%
11:00 +27°C° 0 mm 3 mps 740 mmHg 41%
12:00 +28°C° 0 mm 3 mps 740 mmHg 40%
13:00 +28°C° 0 mm 3 mps 740 mmHg 38%
14:00 +29°C° 0 mm 3 mps 740 mmHg 39%
15:00 +29°C° 0 mm 3 mps 739 mmHg 40%
16:00 +29°C° 0 mm 2 mps 739 mmHg 41%
17:00 +27°C° 0 mm 2 mps 739 mmHg 48%
18:00 +25°C° 0 mm 2 mps 739 mmHg 54%
19:00 +23°C° 0 mm 2 mps 739 mmHg 61%
20:00 +21°C° 0 mm 2 mps 740 mmHg 61%
21:00 +20°C° 0 mm 2 mps 740 mmHg 60%
22:00 +20°C° 0 mm 2 mps 740 mmHg 60%
23:00 +19°C° 0 mm 2 mps 741 mmHg 62%

Day after tomorrow, 9 July, Thursday

Time Temperature Precipitation Wind Pressure Humidity
00:00 +19°C° 0 mm 2 mps 741 mmHg 63%
01:00 +18°C° 0 mm 2 mps 741 mmHg 64%
02:00 +18°C° 0 mm 2 mps 741 mmHg 65%
03:00 +18°C° 0 mm 2 mps 741 mmHg 66%
04:00 +18°C° 0 mm 2 mps 740 mmHg 67%
05:00 +19°C° 0 mm 2 mps 741 mmHg 64%
06:00 +21°C° 0 mm 2 mps 741 mmHg 61%
07:00 +24°C° 0 mm 2 mps 741 mmHg 58%
08:00 +25°C° 0 mm 2 mps 741 mmHg 52%
09:00 +27°C° 0 mm 2 mps 741 mmHg 46%
10:00 +29°C° 0 mm 2 mps 741 mmHg 41%
11:00 +30°C° 0 mm 2 mps 741 mmHg 39%
12:00 +31°C° 0 mm 2 mps 741 mmHg 36%
13:00 +31°C° 0 mm 3 mps 740 mmHg 34%
14:00 +31°C° 0 mm 2 mps 740 mmHg 35%
15:00 +31°C° 0 mm 2 mps 740 mmHg 37%
16:00 +31°C° 0 mm 2 mps 740 mmHg 38%
17:00 +29°C° 0 mm 2 mps 740 mmHg 44%
18:00 +27°C° 0 mm 2 mps 740 mmHg 50%
19:00 +25°C° 0 mm 2 mps 740 mmHg 56%
20:00 +24°C° 0 mm 2 mps 740 mmHg 56%
21:00 +24°C° 0 mm 2 mps 740 mmHg 56%
22:00 +23°C° 0 mm 2 mps 741 mmHg 56%
23:00 +21°C° 0 mm 2 mps 741 mmHg 57%

10 July, Friday

Time Temperature Precipitation Wind Pressure Humidity
00:00 +21°C° 0 mm 2 mps 740 mmHg 58%
01:00 +21°C° 0 mm 2 mps 740 mmHg 59%
02:00 +20°C° 0 mm 2 mps 740 mmHg 60%
03:00 +20°C° 0 mm 2 mps 740 mmHg 61%
04:00 +20°C° 0 mm 2 mps 740 mmHg 63%
05:00 +21°C° 0 mm 2 mps 740 mmHg 61%
06:00 +24°C° 0 mm 2 mps 740 mmHg 59%
07:00 +26°C° 0 mm 2 mps 740 mmHg 57%
08:00 +27°C° 0 mm 2 mps 740 mmHg 53%
09:00 +29°C° 0 mm 2 mps 740 mmHg 49%
10:00 +31°C° 0 mm 2 mps 740 mmHg 45%
11:00 +31°C° 0 mm 2 mps 739 mmHg 43%
12:00 +32°C° 0 mm 2 mps 739 mmHg 41%
13:00 +34°C° 0 mm 2 mps 739 mmHg 40%
14:00 +34°C° 0 mm 2 mps 739 mmHg 40%
15:00 +34°C° 0 mm 2 mps 739 mmHg 41%
16:00 +34°C° 0 mm 2 mps 738 mmHg 41%
17:00 +31°C° 0 mm 1 mps 738 mmHg 47%
18:00 +29°C° 0 mm 1 mps 738 mmHg 53%
19:00 +27°C° 0 mm 1 mps 738 mmHg 59%
20:00 +26°C° 0 mm 1 mps 738 mmHg 61%
21:00 +25°C° 0 mm 1 mps 739 mmHg 63%
22:00 +24°C° 0 mm 1 mps 739 mmHg 65%
23:00 +24°C° 0 mm 1 mps 739 mmHg 65%

11 July, Saturday

Time Temperature Precipitation Wind Pressure Humidity
00:00 +24°C° 0 mm 1 mps 739 mmHg 66%
01:00 +23°C° 0 mm 1 mps 739 mmHg 66%
02:00 +23°C° 0 mm 1 mps 739 mmHg 67%
03:00 +23°C° 0 mm 1 mps 738 mmHg 68%
04:00 +22°C° 0 mm 1 mps 738 mmHg 69%
05:00 +24°C° 0 mm 1 mps 738 mmHg 65%
06:00 +26°C° 0 mm 1 mps 738 mmHg 62%
07:00 +25°C° 0 mm 0 mps 738 mmHg 58%
08:00 +29°C° 0.1 mm 1 mps 738 mmHg 54%
09:00 +30°C° 0.1 mm 1 mps 739 mmHg 51%
10:00 +32°C° 0.1 mm 1 mps 739 mmHg 47%
11:00 +32°C° 0.1 mm 2 mps 738 mmHg 46%
12:00 +32°C° 0.1 mm 2 mps 738 mmHg 44%
13:00 +34°C° 0.1 mm 3 mps 738 mmHg 43%
14:00 +33°C° 0.1 mm 3 mps 738 mmHg 43%
15:00 +33°C° 0.1 mm 3 mps 738 mmHg 44%
16:00 +33°C° 0.1 mm 3 mps 738 mmHg 44%
17:00 +30°C° 0 mm 2 mps 737 mmHg 50%
18:00 +28°C° 0 mm 1 mps 737 mmHg 56%
19:00 +26°C° 0 mm 1 mps 737 mmHg 62%
20:00 +25°C° 0 mm 1 mps 737 mmHg 63%
21:00 +24°C° 0 mm 1 mps 738 mmHg 65%
22:00 +23°C° 0 mm 1 mps 738 mmHg 67%
23:00 +23°C° 0 mm 1 mps 738 mmHg 68%

12 July, Sunday

Time Temperature Precipitation Wind Pressure Humidity
00:00 +23°C° 0 mm 1 mps 738 mmHg 68%
01:00 +22°C° 0 mm 1 mps 739 mmHg 69%
02:00 +22°C° 0 mm 1 mps 739 mmHg 71%
03:00 +21°C° 0 mm 2 mps 739 mmHg 72%
04:00 +20°C° 0 mm 2 mps 739 mmHg 74%
05:00 +23°C° 0 mm 2 mps 739 mmHg 72%
06:00 +24°C° 0 mm 2 mps 740 mmHg 71%
07:00 +25°C° 0 mm 3 mps 740 mmHg 69%
08:00 +26°C° 0.1 mm 3 mps 741 mmHg 65%
09:00 +27°C° 0.1 mm 3 mps 741 mmHg 61%
10:00 +28°C° 0.1 mm 3 mps 741 mmHg 56%
11:00 +29°C° 0.2 mm 3 mps 741 mmHg 55%
12:00 +29°C° 0.2 mm 3 mps 741 mmHg 54%
13:00 +30°C° 0.2 mm 3 mps 741 mmHg 52%
14:00 +29°C° 0.2 mm 3 mps 741 mmHg 53%
15:00 +29°C° 0.2 mm 3 mps 741 mmHg 54%
16:00 +29°C° 0.2 mm 3 mps 741 mmHg 55%
17:00 +27°C° 0 mm 3 mps 741 mmHg 58%
18:00 +26°C° 0 mm 3 mps 741 mmHg 61%
19:00 +23°C° 0 mm 4 mps 741 mmHg 65%
20:00 +22°C° 0 mm 4 mps 741 mmHg 65%
21:00 +20°C° 0 mm 4 mps 742 mmHg 65%
22:00 +19°C° 0 mm 4 mps 742 mmHg 66%
23:00 +18°C° 0 mm 4 mps 742 mmHg 68%
Show more